Location: Newark
(51.0500°N, 12.4500°E)
Time: 14:37:18
(UTC+00:00)

Tiros 1 - Pass Details

Date: 19 February 2020
Orbit: 630 x 664 km, 48.4° (Epoch: 08 April)

Event Time Altitude Azimuth Distance (km) Brightness Sun altitude
Rises 01:25:18 0° 188° (S) 2,915 - -43.4°
Reaches altitude 10° 01:29:17 10° 154° (SSE) 2,006 - -43.0°
Maximum altitude 01:30:40 11° 137° (SE) 1,925 - -42.8°
Drops below altitude 10° 01:32:03 10° 119° (ESE) 2,007 - -42.7°
Exits shadow 01:35:22 - 89° (E) 2,722 10.8 -42.3°
Sets 01:36:02 0° 85° (E) 2,918 11.1 -42.2°
